Regional Weather Roundup
Issued by NWS

Home | Current Version | Previous Version | Graphics & Text | Print | Product List | Glossary On
Versions: 1 2 3 4 5 6 7 8 9 10 11 12 13 14 15 16 17 18 19 20 21 22 23 24 25 26 27 28 29 30 31 32 33 34 35 36 37 38 39 40 41 42 43 44 45 46 47 48 49 50
000
ASUS43 KBIS 250510
RWRND

NORTH DAKOTA REGIONAL WEATHER ROUNDUP
NATIONAL WEATHER SERVICE BISMARCK ND
1200 AM CDT SAT OCT 25 2014

NOTE: "FAIR" INDICATES FEW OR NO CLOUDS BELOW 12,000 FEET WITH NO
SIGNIFICANT WEATHER AND/OR OBSTRUCTIONS TO VISIBILITY.


NDZ001>003-009>011-017-250600-
NORTHWEST NORTH DAKOTA

CITY           SKY/WX    TMP DP  RH WIND       PRES   REMARKS
WILLISTON      PTCLDY    42  26  53 W10       30.06R
MINOT          CLEAR     45  29  53 W10       30.01R
MINOT AFB      CLEAR     42  31  64 W9        30.00R
$$

NDZ018>021-031>035-040>046-250600-
SOUTHWEST NORTH DAKOTA

CITY           SKY/WX    TMP DP  RH WIND       PRES   REMARKS
BISMARCK       PTCLDY    47  31  53 NW8       30.05S
DICKINSON      CLOUDY    45  32  60 W8        30.08R
GARRISON         N/A     44  30  57 NW10      30.02R
HETTINGER ARPT CLOUDY    48  33  56 W7        30.11R
$$

NDZ004>008-012>016-024-026-027-054-250600-
NORTHEAST NORTH DAKOTA

CITY           SKY/WX    TMP DP  RH WIND       PRES   REMARKS
GRAND FORKS    CLEAR     51  35  54 W8        29.90R
GRND FRKS AFB  CLEAR     51  35  54 NW13      29.91S
DEVILS LAKE    CLEAR     46  32  57 W12       29.94S
$$

NDZ022-023-025-028>030-036>039-047>053-250600-
SOUTHEAST NORTH DAKOTA

CITY           SKY/WX    TMP DP  RH WIND       PRES   REMARKS
FARGO          CLEAR     48  32  53 W10       29.95R
JAMESTOWN      CLEAR     47  33  58 W8        29.99R
$$




USA.gov is the U.S. government's official web portal to all federal, state and local government web resources and services.